FW8109 Weather Reports


time (UTC)temp
F
wind
direction
speed
knots
gust
knots
rain 1hr
in
rain 24hr
in
rain mn
in
humidity
%
barometer
mb
20260831035418 70 109 1.7 5.2 0.00 0.00 0.00 61 1027.9
20260831034418 70 172 1.7 5.2 0.00 0.00 0.00 62 1027.9
20260831033416 70 177 1.7 5.2 0.00 0.00 0.00 61 1028.0
20260831032416 69 141 1.7 4.3 0.00 0.00 0.00 65 1028.2
20260831031416 69 146 2.6 6.1 0.00 0.00 0.00 66 1028.3
20260831030416 69 245 2.6 7.8 0.00 0.00 0.00 67 1028.4
20260831025416 69 185 1.7 6.1 0.00 0.00 0.00 65 1028.6
20260831024418 70 109 1.7 5.2 0.00 0.00 0.00 64 1028.8
20260831023414 70 135 1.7 4.3 0.00 0.00 0.00 63 1028.9
20260831022411 70 180 1.7 4.3 0.00 0.00 0.00 65 1029.0
20260831021412 69 207 1.7 7.0 0.00 0.00 0.00 66 1029.1
20260831020412 69 135 2.6 6.1 0.00 0.00 0.00 66 1029.3
20260831015852 69 169 2.6 7.0 0.00 0.00 0.00 66 1029.3
20260831014852 70 209 1.7 4.3 0.00 0.00 0.00 64 1029.5
20260831013409 70 137 1.7 7.0 0.00 0.00 0.00 64 1029.6
20260831012406 69 106 1.7 7.8 0.00 0.00 0.00 65 1029.6
20260831011407 70 165 1.7 3.5 0.00 0.00 0.00 65 1029.7
20260831010407 69 13 1.7 3.5 0.00 0.00 0.00 65 1029.8
20260831005408 68 134 1.7 6.1 0.00 0.00 0.00 67 1029.9
20260831004406 68 276 1.7 3.5 0.00 0.00 0.00 67 1029.9
20260831003404 67 20 1.7 4.3 0.00 0.00 0.00 70 1030.0
20260831002404 67 328 1.7 3.5 0.00 0.00 0.00 71 1030.1
20260831001405 67 189 1.7 4.3 0.00 0.00 0.00 70 1030.1
20260831000405 66 45 1.7 7.8 0.00 0.00 0.00 73 1030.1
20260830235405 65 55 2.6 5.2 0.00 0.00 0.00 74 1030.1
20260830234401 64 129 1.7 7.8 0.00 0.00 0.00 77 1030.1
20260830233402 63 1 1.7 6.1 0.00 0.00 0.00 80 1030.2
20260830232402 61 328 1.7 3.5 0.00 0.00 0.00 85 1030.2
20260830231403 60 98 1.7 13.9 0.00 0.00 0.00 91 1030.2
20260830230403 59 127 1.7 5.2 0.00 0.00 0.00 97 1030.2
20260830225403 58 133 1.7 4.3 0.00 0.00 0.00 100 1030.2
20260830224400 57 229 1.7 3.5 0.00 0.00 0.00 100 1030.1
20260830223835 56 132 1.7 6.1 0.00 0.00 0.00 100 1030.1
20260830222836 56 131 1.7 2.6 0.00 0.00 0.00 100 1030.1
20260830221400 56 89 1.7 3.5 0.00 0.00 0.00 100 1030.0
20260830220400 55 134 1.7 5.2 0.00 0.00 0.00 100 1030.0
20260830215401 54 123 1.7 5.2 0.00 0.00 0.00 100 1030.0
20260830214358 53 90 3.5 6.1 0.00 0.00 0.00 100 1029.9
20260830213355 52 56 2.6 5.2 0.00 0.00 0.00 100 1029.8
20260830212356 51 38 1.7 5.2 0.00 0.00 0.00 100 1029.6
20260830211355 49 43 0.9 2.6 0.00 0.00 0.00 100 1029.5
20260830210356 48 37 0.9 1.7 0.00 0.00 0.00 100 1029.4
20260830205352 47 23 0.9 1.7 0.00 0.00 0.00 100 1029.3
20260830204832 46 72 0.0 0.9 0.00 0.00 0.00 99 1029.1
20260830203350 46 37 0.0 0.9 0.00 0.00 0.00 99 1029.0
20260830202350 46 123 0.0 0.9 0.00 0.00 0.00 99 1028.9
20260830201350 46 324 0.0 1.7 0.00 0.00 0.00 99 1028.8
20260830195350 46 0 0.0 0.9 0.00 0.00 0.00 99 1028.6
20260830194348 45 346 0.0 0.9 0.00 0.00 0.00 99 1028.5
20260830193348 45 334 0.0 0.9 0.00 0.00 0.00 99 1028.5
20260830192348 45 279 0.0 1.7 0.00 0.00 0.00 99 1028.4
20260830191348 45 10 0.0 0.9 0.00 0.00 0.00 99 1028.4
20260830190348 44 0 0.0 1.7 0.00 0.00 0.00 99 1028.4
20260830185346 44 311 0.0 0.9 0.00 0.00 0.00 99 1028.5
20260830184346 44 322 0.0 0.9 0.00 0.00 0.00 99 1028.5
20260830183347 44 0 0.0 0.9 0.00 0.00 0.00 99 1028.4
20260830182815 44 43 0.0 0.9 0.00 0.00 0.00 99 1028.4
20260830181343 44 0 0.0 0.9 0.00 0.00 0.00 99 1028.4
20260830180818 44 0 0.0 0.9 0.00 0.00 0.00 99 1028.4
20260830175341 44 77 0.0 1.7 0.00 0.00 0.00 99 1028.5
20260830174337 44 69 0.0 0.9 0.00 0.00 0.00 99 1028.4
20260830173340 44 33 0.0 0.9 0.00 0.00 0.00 99 1028.4
20260830172337 43 0 0.0 0.9 0.00 0.00 0.00 99 1028.4
20260830171338 44 11 0.0 0.9 0.00 0.00 0.00 99 1028.3
20260830170337 44 227 0.0 0.9 0.00 0.00 0.00 98 1028.3
20260830165337 45 0 0.0 0.9 0.00 0.00 0.00 99 1028.3
20260830164337 45 0 0.0 1.7 0.00 0.00 0.00 99 1028.2
20260830163822 45 74 0.0 0.9 0.00 0.00 0.00 99 1028.3
20260830162337 45 0 0.0 0.9 0.00 0.00 0.00 99 1028.5
20260830161336 45 0 0.0 0.9 0.00 0.00 0.00 98 1028.4
20260830160336 45 33 0.0 0.9 0.00 0.00 0.00 99 1028.6
20260830155336 44 0 0.0 0.9 0.00 0.00 0.00 98 1028.6
20260830154813 43 0 0.0 0.9 0.00 0.00 0.00 98 1028.6
20260830153338 43 0 0.0 0.9 0.00 0.00 0.00 98 1028.6
20260830152334 43 0 0.0 0.0 0.00 0.00 0.00 98 1028.7
20260830151334 44 106 0.0 0.9 0.00 0.00 0.00 98 1028.7
20260830150334 44 0 0.0 0.9 0.00 0.00 0.00 98 1028.8
20260830145335 45 0 0.0 0.9 0.00 0.00 0.00 98 1028.7
20260830144332 46 88 0.0 0.9 0.00 0.00 0.00 98 1028.8
20260830143809 47 0 0.0 0.9 0.00 0.00 0.00 98 1028.8
20260830142329 47 59 0.0 0.9 0.00 0.00 0.00 98 1028.7
20260830140329 46 64 0.0 0.9 0.00 0.00 0.00 98 1028.7
20260830135329 46 0 0.0 0.9 0.00 0.00 0.00 97 1028.8
20260830134330 47 0 0.0 0.9 0.00 0.00 0.00 98 1028.8
20260830133329 47 0 0.0 0.9 0.00 0.00 0.00 97 1028.7
20260830132327 47 0 0.0 0.9 0.00 0.00 0.00 97 1028.8
20260830131328 46 0 0.0 0.0 0.00 0.00 0.00 97 1028.9
20260830130326 46 0 0.0 0.9 0.00 0.00 0.00 98 1028.9
20260830125328 45 0 0.0 0.9 0.00 0.00 0.00 96 1028.9
20260830124803 46 0 0.0 0.9 0.00 0.00 0.00 96 1029.0
20260830123328 46 0 0.0 0.9 0.00 0.00 0.00 96 1028.9
20260830122325 46 0 0.0 0.0 0.00 0.00 0.00 96 1028.9
20260830121325 46 0 0.0 0.9 0.00 0.00 0.00 96 1028.7
20260830120325 46 0 0.0 0.0 0.00 0.00 0.00 96 1028.7
20260830115325 47 0 0.0 0.9 0.00 0.00 0.00 96 1028.7
20260830114326 47 0 0.0 0.9 0.00 0.00 0.00 96 1028.7
20260830113326 48 0 0.0 0.9 0.00 0.00 0.00 96 1028.7
20260830112757 48 0 0.0 0.9 0.00 0.00 0.00 96 1028.8
20260830111758 49 0 0.0 0.0 0.00 0.00 0.00 96 1028.7
20260830110323 49 0 0.0 0.9 0.00 0.00 0.00 96 1028.8
20260830105323 49 0 0.0 0.0 0.00 0.00 0.00 96 1028.8
20260830104324 49 0 0.0 0.0 0.00 0.00 0.00 96 1028.8
20260830103320 48 0 0.0 0.0 0.00 0.00 0.00 95 1028.8
20260830102321 49 0 0.0 0.9 0.00 0.00 0.00 95 1028.7
20260830101321 49 0 0.0 0.9 0.00 0.00 0.00 96 1028.7
20260830100322 48 0 0.0 0.9 0.00 0.00 0.00 94 1028.7
20260830095759 48 0 0.0 0.9 0.00 0.00 0.00 94 1028.6
20260830094321 49 0 0.0 0.9 0.00 0.00 0.00 93 1028.5
20260830093319 50 0 0.0 0.0 0.00 0.00 0.00 93 1028.4
20260830091319 51 0 0.0 0.9 0.00 0.00 0.00 93 1028.3
20260830090318 52 0 0.0 0.9 0.00 0.00 0.00 93 1028.2
20260830084319 53 137 0.0 0.9 0.00 0.00 0.00 92 1028.1
20260830083317 53 0 0.0 0.9 0.00 0.00 0.00 91 1028.1
20260830082317 53 0 0.0 0.9 0.00 0.00 0.00 89 1028.0
20260830081317 54 0 0.0 0.9 0.00 0.00 0.00 87 1028.0
20260830080317 55 0 0.0 0.9 0.00 0.00 0.00 85 1027.9
20260830075317 56 0 0.0 0.9 0.00 0.00 0.00 84 1027.8
20260830074318 57 0 0.0 0.9 0.00 0.00 0.00 82 1027.7
20260830073315 58 0 0.0 0.9 0.00 0.00 0.00 81 1027.6
20260830072316 60 106 0.0 1.7 0.00 0.00 0.00 80 1027.5
20260830071315 61 252 0.0 1.7 0.00 0.00 0.00 78 1027.4
20260830070316 62 228 0.0 1.7 0.00 0.00 0.00 76 1027.5
20260830065316 62 194 0.9 3.5 0.00 0.00 0.00 75 1027.5
20260830064312 63 213 1.7 3.5 0.00 0.00 0.00 73 1027.5
20260830063314 64 261 1.7 3.5 0.00 0.00 0.00 72 1027.4
20260830062313 64 167 0.9 4.3 0.00 0.00 0.00 70 1027.4
20260830061800 65 188 0.9 3.5 0.00 0.00 0.00 69 1027.3
20260830060313 66 202 0.9 3.5 0.00 0.00 0.00 67 1027.3
20260830055312 68 92 0.9 2.6 0.00 0.00 0.00 64 1027.3
20260830054311 68 246 0.9 2.6 0.00 0.00 0.00 62 1027.4
20260830053311 68 184 0.9 3.5 0.00 0.00 0.00 62 1027.4
20260830052312 67 167 1.7 4.3 0.00 0.00 0.00 62 1027.4
20260830051312 67 192 1.7 5.2 0.00 0.00 0.00 62 1027.5
20260830050309 67 217 1.7 4.3 0.00 0.00 0.00 63 1027.7
20260830045309 67 79 1.7 3.5 0.00 0.00 0.00 62 1027.7
20260830044310 67 195 1.7 5.2 0.00 0.00 0.00 63 1027.7
20260830043310 67 183 1.7 6.1 0.00 0.00 0.00 66 1027.6
20260830042312 68 205 1.7 7.8 0.00 0.00 0.00 66 1027.7
20260830041307 68 80 1.7 5.2 0.00 0.00 0.00 65 1027.7